Location: Newark
(41.0400°S, 62.7845°W)
Time: 15:09:16
(UTC+00:00)

STARLINK-3086 - Pass Details

Date: 06 June 2022
Orbit: 570 x 574 km, 70.0° (Epoch: 04 July)

Event Time Altitude Azimuth Distance (km) Brightness Sun altitude
Rises 21:22:12 0° 227° (SW) 2,808 7.5 -6.3°
Reaches altitude 10° 21:25:32 10° 254° (WSW) 1,898 7.2 -6.9°
Maximum altitude 21:27:28 13° 281° (WNW) 1,704 7.6 -7.2°
Drops below altitude 10° 21:29:24 10° 309° (NW) 1,885 7.8 -7.5°
Sets 21:32:42 0° 337° (NNW) 2,770 8.0 -8.1°
